"datetime","temp","dp","rain_mm","uv","solar","mb","wind_mph","gust_mph","windchill","rh"
"2020-05-17 00:00:00",8.7,6.8,0.0,0.0,0,1022.8,1,1,"",88
"2020-05-17 00:01:00",8.7,6.8,0.0,0.0,0,1022.7,1,2,"",88
"2020-05-17 00:02:00",8.6,6.7,0.0,0.0,0,1022.8,1,1,"",88
"2020-05-17 00:03:00",8.6,6.7,0.0,0.0,0,1022.7,1,2,"",88
"2020-05-17 00:04:00",8.6,6.7,0.0,0.0,0,1022.7,1,2,"",88
"2020-05-17 00:05:00",8.6,6.7,0.0,0.0,0,1022.7,1,1,"",88
"2020-05-17 00:06:00",8.6,6.7,0.0,0.0,0,1022.7,1,2,"",88
"2020-05-17 00:07:00",8.6,6.7,0.0,0.0,0,1022.7,1,2,"",88
"2020-05-17 00:08:00",8.5,6.6,0.0,0.0,0,1022.7,1,2,"",88
"2020-05-17 00:09:00",8.4,6.5,0.0,0.0,0,1022.7,1,1,"",88
"2020-05-17 00:10:00",8.5,6.8,0.0,0.0,0,1022.7,0,1,"",89
"2020-05-17 00:11:00",8.4,6.7,0.0,0.0,0,1022.7,0,1,"",89
"2020-05-17 00:12:00",8.4,6.7,0.0,0.0,0,1022.7,0,1,"",89
"2020-05-17 00:13:00",8.4,6.7,0.0,0.0,0,1022.8,1,1,"",89
"2020-05-17 00:14:00",8.4,6.7,0.0,0.0,0,1022.8,0,1,"",89
"2020-05-17 00:15:00",8.4,6.7,0.0,0.0,0,1022.8,0,1,"",89
"2020-05-17 00:16:00",8.4,6.7,0.0,0.0,0,1022.8,0,1,"",89
"2020-05-17 00:17:00",8.4,6.7,0.0,0.0,0,1022.8,0,1,"",89
"2020-05-17 00:18:00",8.3,6.6,0.0,0.0,0,1022.7,0,1,"",89
"2020-05-17 00:19:00",8.3,6.6,0.0,0.0,0,1022.7,1,1,"",89
"2020-05-17 00:20:00",8.3,6.6,0.0,0.0,0,1022.7,0,1,"",89
"2020-05-17 00:21:00",8.3,6.6,0.0,0.0,0,1022.7,0,1,"",89
"2020-05-17 00:22:00",8.2,6.5,0.0,0.0,0,1022.7,0,1,"",89
"2020-05-17 00:23:00",8.2,6.5,0.0,0.0,0,1022.7,0,1,"",89
"2020-05-17 00:24:00",8.2,6.5,0.0,0.0,0,1022.7,0,1,"",89
"2020-05-17 00:25:00",8.2,6.5,0.0,0.0,0,1022.7,0,1,"",89
"2020-05-17 00:26:00",8.2,6.5,0.0,0.0,0,1022.7,0,1,"",89
"2020-05-17 00:27:00",8.2,6.5,0.0,0.0,0,1022.7,0,1,"",89
"2020-05-17 00:28:00",8.2,6.5,0.0,0.0,0,1022.7,0,0,"",89
"2020-05-17 00:29:00",8.2,6.5,0.0,0.0,0,1022.7,1,1,"",89
"2020-05-17 00:30:00",8.2,6.7,0.0,0.0,0,1022.7,0,1,"",90
"2020-05-17 00:31:00",8.2,6.5,0.0,0.0,0,1022.7,1,1,"",89
"2020-05-17 00:32:00",8.2,6.5,0.0,0.0,0,1022.8,0,1,"",89
"2020-05-17 00:33:00",8.1,6.4,0.0,0.0,0,1022.8,1,2,"",89
"2020-05-17 00:34:00",8.1,6.6,0.0,0.0,0,1022.8,1,1,"",90
"2020-05-17 00:35:00",8.1,6.4,0.0,0.0,0,1022.8,1,1,"",89
"2020-05-17 00:36:00",8.1,6.4,0.0,0.0,0,1022.8,1,1,"",89
"2020-05-17 00:37:00",8.1,6.4,0.0,0.0,0,1022.9,0,1,"",89
"2020-05-17 00:38:00",8.0,6.3,0.0,0.0,0,1022.9,1,1,"",89
"2020-05-17 00:39:00",8.1,6.4,0.0,0.0,0,1022.9,0,1,"",89
"2020-05-17 00:40:00",8.0,6.3,0.0,0.0,0,1022.8,0,1,"",89
"2020-05-17 00:41:00",8.0,6.5,0.0,0.0,0,1022.8,0,1,"",90
"2020-05-17 00:42:00",8.0,6.5,0.0,0.0,0,1022.9,0,1,"",90
"2020-05-17 00:43:00",8.0,6.5,0.0,0.0,0,1022.9,1,1,"",90
"2020-05-17 00:44:00",8.0,6.5,0.0,0.0,0,1022.9,0,1,"",90
"2020-05-17 00:45:00",8.0,6.5,0.0,0.0,0,1022.9,0,1,"",90
"2020-05-17 00:46:00",8.1,6.6,0.0,0.0,0,1022.9,0,1,"",90
"2020-05-17 00:47:00",8.1,6.6,0.0,0.0,0,1022.9,0,1,"",90
"2020-05-17 00:48:00",8.1,6.6,0.0,0.0,0,1022.9,1,1,"",90
"2020-05-17 00:49:00",8.1,6.6,0.0,0.0,0,1022.9,1,1,"",90
"2020-05-17 00:50:00",8.1,6.6,0.0,0.0,0,1022.9,0,1,"",90
"2020-05-17 00:51:00",8.1,6.6,0.0,0.0,0,1022.9,0,1,"",90
"2020-05-17 00:52:00",8.1,6.6,0.0,0.0,0,1022.9,1,1,"",90
"2020-05-17 00:53:00",8.1,6.6,0.0,0.0,0,1022.9,0,1,"",90
"2020-05-17 00:54:00",8.1,6.6,0.0,0.0,0,1022.9,0,1,"",90
"2020-05-17 00:55:00",8.1,6.6,0.0,0.0,0,1022.9,0,0,"",90
"2020-05-17 00:56:00",8.1,6.6,0.0,0.0,0,1022.9,0,1,"",90
"2020-05-17 00:57:00",8.1,6.6,0.0,0.0,0,1023.0,0,1,"",90
"2020-05-17 00:58:00",8.2,6.7,0.0,0.0,0,1022.9,0,1,"",90
"2020-05-17 00:59:00",8.2,6.7,0.0,0.0,0,1022.9,0,1,"",90
"2020-05-17 01:00:00",8.2,6.7,0.0,0.0,0,1022.9,0,1,"",90
"2020-05-17 01:01:00",8.2,6.7,0.0,0.0,0,1022.9,0,1,"",90
"2020-05-17 01:02:00",8.2,6.7,0.0,0.0,0,1022.9,1,2,"",90
"2020-05-17 01:03:00",8.2,6.7,0.0,0.0,0,1022.9,1,2,"",90
"2020-05-17 01:04:00",8.2,6.7,0.0,0.0,0,1022.9,0,1,"",90
"2020-05-17 01:05:00",8.2,6.7,0.0,0.0,0,1022.9,0,1,"",90
"2020-05-17 01:06:00",8.2,6.7,0.0,0.0,0,1022.9,1,1,"",90
"2020-05-17 01:07:00",8.2,6.7,0.0,0.0,0,1022.8,1,1,"",90
"2020-05-17 01:08:00",8.2,6.7,0.0,0.0,0,1022.9,0,1,"",90
"2020-05-17 01:09:00",8.2,6.7,0.0,0.0,0,1022.9,0,1,"",90
"2020-05-17 01:10:00",8.2,6.7,0.0,0.0,0,1022.9,1,2,"",90
"2020-05-17 01:11:00",8.2,6.7,0.0,0.0,0,1022.8,1,1,"",90
"2020-05-17 01:12:00",8.2,6.7,0.0,0.0,0,1022.9,0,1,"",90
"2020-05-17 01:13:00",8.2,6.7,0.0,0.0,0,1022.9,1,1,"",90
"2020-05-17 01:14:00",8.2,6.7,0.0,0.0,0,1022.9,1,1,"",90
"2020-05-17 01:15:00",8.1,6.6,0.0,0.0,0,1022.9,1,2,"",90
"2020-05-17 01:16:00",8.1,6.6,0.0,0.0,0,1022.9,1,2,"",90
"2020-05-17 01:17:00",8.1,6.4,0.0,0.0,0,1022.9,1,2,"",89
"2020-05-17 01:18:00",8.0,6.5,0.0,0.0,0,1022.9,1,1,"",90
"2020-05-17 01:19:00",7.9,6.4,0.0,0.0,0,1022.9,1,2,"",90
"2020-05-17 01:20:00",7.9,6.4,0.0,0.0,0,1023.0,0,1,"",90
"2020-05-17 01:21:00",7.9,6.4,0.0,0.0,0,1022.9,1,1,"",90
"2020-05-17 01:22:00",7.9,6.4,0.0,0.0,0,1023.0,1,2,"",90
"2020-05-17 01:23:00",7.9,6.4,0.0,0.0,0,1023.0,1,2,"",90
"2020-05-17 01:24:00",7.9,6.4,0.0,0.0,0,1023.0,1,2,"",90
"2020-05-17 01:25:00",7.9,6.4,0.0,0.0,0,1023.0,1,1,"",90
"2020-05-17 01:26:00",7.9,6.4,0.0,0.0,0,1023.0,1,2,"",90
"2020-05-17 01:27:00",7.9,6.4,0.0,0.0,0,1022.9,0,1,"",90
"2020-05-17 01:28:00",8.0,6.5,0.0,0.0,0,1022.9,1,1,"",90
"2020-05-17 01:29:00",8.0,6.5,0.0,0.0,0,1022.9,1,2,"",90
"2020-05-17 01:30:00",8.0,6.6,0.0,0.0,0,1022.9,1,2,"",91
"2020-05-17 01:31:00",8.1,6.7,0.0,0.0,0,1023.0,0,1,"",91
"2020-05-17 01:32:00",8.1,6.7,0.0,0.0,0,1022.9,0,1,"",91
"2020-05-17 01:33:00",8.1,6.7,0.0,0.0,0,1023.0,1,1,"",91
"2020-05-17 01:34:00",8.1,6.6,0.0,0.0,0,1022.9,0,1,"",90
"2020-05-17 01:35:00",8.1,6.6,0.0,0.0,0,1022.9,1,1,"",90
"2020-05-17 01:36:00",8.1,6.6,0.0,0.0,0,1022.9,1,2,"",90
"2020-05-17 01:37:00",8.1,6.6,0.0,0.0,0,1022.9,0,1,"",90
"2020-05-17 01:38:00",8.2,6.7,0.0,0.0,0,1022.9,1,2,"",90
"2020-05-17 01:39:00",8.2,6.7,0.0,0.0,0,1022.9,1,1,"",90
"2020-05-17 01:40:00",8.2,6.7,0.0,0.0,0,1022.8,1,1,"",90
"2020-05-17 01:41:00",8.2,6.7,0.0,0.0,0,1022.9,1,2,"",90
"2020-05-17 01:42:00",8.2,6.7,0.0,0.0,0,1022.9,1,1,"",90
"2020-05-17 01:43:00",8.2,6.7,0.0,0.0,0,1022.9,1,1,"",90
"2020-05-17 01:44:00",8.2,6.7,0.0,0.0,0,1022.9,0,1,"",90
"2020-05-17 01:45:00",8.2,6.7,0.0,0.0,0,1022.9,0,1,"",90
"2020-05-17 01:46:00",8.2,6.7,0.0,0.0,0,1022.9,1,1,"",90
"2020-05-17 01:47:00",8.3,6.8,0.0,0.0,0,1022.9,0,1,"",90
"2020-05-17 01:48:00",8.3,6.8,0.0,0.0,0,1022.9,0,1,"",90
"2020-05-17 01:49:00",8.3,6.8,0.0,0.0,0,1023.0,1,1,"",90
"2020-05-17 01:50:00",8.3,6.8,0.0,0.0,0,1022.9,0,1,"",90
"2020-05-17 01:51:00",8.3,6.8,0.0,0.0,0,1022.9,0,1,"",90
"2020-05-17 01:52:00",8.3,6.8,0.0,0.0,0,1023.0,0,0,"",90
"2020-05-17 01:53:00",8.3,6.8,0.0,0.0,0,1023.0,1,1,"",90
"2020-05-17 01:54:00",8.4,6.9,0.0,0.0,0,1022.9,1,1,"",90
"2020-05-17 01:55:00",8.4,6.9,0.0,0.0,0,1022.9,1,1,"",90
"2020-05-17 01:56:00",8.4,6.9,0.0,0.0,0,1022.9,1,2,"",90
"2020-05-17 01:57:00",8.4,6.9,0.0,0.0,0,1022.9,0,1,"",90
"2020-05-17 01:58:00",8.4,6.9,0.0,0.0,0,1022.9,0,1,"",90
"2020-05-17 01:59:00",8.4,6.9,0.0,0.0,0,1022.9,0,1,"",90
"2020-05-17 02:00:00",8.5,7.0,0.0,0.0,0,1022.9,1,1,"",90
"2020-05-17 02:01:00",8.5,7.0,0.0,0.0,0,1022.9,0,1,"",90
"2020-05-17 02:02:00",8.4,6.9,0.0,0.0,0,1022.9,0,1,"",90
"2020-05-17 02:03:00",8.4,6.9,0.0,0.0,0,1022.8,1,2,"",90
"2020-05-17 02:04:00",8.4,6.9,0.0,0.0,0,1022.9,0,1,"",90
"2020-05-17 02:05:00",8.4,6.9,0.0,0.0,0,1022.9,1,1,"",90
"2020-05-17 02:06:00",8.4,6.9,0.0,0.0,0,1022.9,1,1,"",90
"2020-05-17 02:07:00",8.4,6.9,0.0,0.0,0,1022.9,0,2,"",90
"2020-05-17 02:08:00",8.5,7.0,0.0,0.0,0,1022.9,1,2,"",90
"2020-05-17 02:09:00",8.5,7.0,0.0,0.0,0,1022.9,0,1,"",90
"2020-05-17 02:10:00",8.5,7.0,0.0,0.0,0,1022.9,1,2,"",90
"2020-05-17 02:11:00",8.6,7.1,0.0,0.0,0,1022.9,1,2,"",90
"2020-05-17 02:12:00",8.6,7.1,0.0,0.0,0,1022.8,0,1,"",90
"2020-05-17 02:13:00",8.6,7.1,0.0,0.0,0,1022.9,0,1,"",90
"2020-05-17 02:14:00",8.6,7.1,0.0,0.0,0,1022.9,1,1,"",90
"2020-05-17 02:15:00",8.7,7.2,0.0,0.0,0,1022.9,1,1,"",90
"2020-05-17 02:16:00",8.7,7.2,0.0,0.0,0,1022.9,0,1,"",90
"2020-05-17 02:17:00",8.7,7.2,0.0,0.0,0,1022.9,1,1,"",90
"2020-05-17 02:18:00",8.7,7.2,0.0,0.0,0,1022.9,1,1,"",90
"2020-05-17 02:19:00",8.7,7.2,0.0,0.0,0,1022.9,1,2,"",90
"2020-05-17 02:20:00",8.7,7.2,0.0,0.0,0,1022.9,1,1,"",90
"2020-05-17 02:21:00",8.7,7.2,0.0,0.0,0,1022.8,1,1,"",90
"2020-05-17 02:22:00",8.7,7.0,0.0,0.0,0,1022.8,0,1,"",89
"2020-05-17 02:23:00",8.7,7.0,0.0,0.0,0,1022.8,0,1,"",89
"2020-05-17 02:24:00",8.8,7.1,0.0,0.0,0,1022.8,0,0,"",89
"2020-05-17 02:25:00",8.8,7.1,0.0,0.0,0,1022.8,0,1,"",89
"2020-05-17 02:26:00",8.8,7.1,0.0,0.0,0,1022.8,0,0,"",89
"2020-05-17 02:27:00",8.8,7.1,0.0,0.0,0,1022.8,0,1,"",89
"2020-05-17 02:28:00",8.8,7.1,0.0,0.0,0,1022.8,0,1,"",89
"2020-05-17 02:29:00",8.8,7.1,0.0,0.0,0,1022.8,0,1,"",89
"2020-05-17 02:30:00",8.8,7.1,0.0,0.0,0,1022.8,0,1,"",89
"2020-05-17 02:31:00",8.8,7.1,0.0,0.0,0,1022.8,1,1,"",89
"2020-05-17 02:32:00",8.7,7.0,0.0,0.0,0,1022.8,0,1,"",89
"2020-05-17 02:33:00",8.7,7.0,0.0,0.0,0,1022.8,1,1,"",89
"2020-05-17 02:34:00",8.7,7.0,0.0,0.0,0,1022.8,0,1,"",89
"2020-05-17 02:35:00",8.8,7.2,0.0,0.0,0,1022.8,0,1,"",90
"2020-05-17 02:36:00",8.8,7.1,0.0,0.0,0,1022.8,1,1,"",89
"2020-05-17 02:37:00",8.8,7.1,0.0,0.0,0,1022.8,1,1,"",89
"2020-05-17 02:38:00",8.8,7.1,0.0,0.0,0,1022.8,0,1,"",89
"2020-05-17 02:39:00",8.8,7.1,0.0,0.0,0,1022.8,0,1,"",89
"2020-05-17 02:40:00",8.8,7.1,0.0,0.0,0,1022.8,0,1,"",89
"2020-05-17 02:41:00",8.8,7.1,0.0,0.0,0,1022.9,0,1,"",89
"2020-05-17 02:42:00",8.8,7.1,0.0,0.0,0,1022.9,0,1,"",89
"2020-05-17 02:43:00",8.8,7.1,0.0,0.0,0,1022.9,1,1,"",89
"2020-05-17 02:44:00",8.8,7.1,0.0,0.0,0,1022.9,1,1,"",89
"2020-05-17 02:45:00",8.8,7.1,0.0,0.0,0,1022.9,0,1,"",89
"2020-05-17 02:46:00",8.8,7.1,0.0,0.0,0,1022.9,0,1,"",89
"2020-05-17 02:47:00",8.8,7.1,0.0,0.0,0,1022.9,0,1,"",89
"2020-05-17 02:48:00",8.8,7.1,0.0,0.0,0,1022.9,0,1,"",89
"2020-05-17 02:49:00",8.8,7.1,0.0,0.0,0,1022.9,1,1,"",89
"2020-05-17 02:50:00",8.8,7.1,0.0,0.0,0,1022.9,0,1,"",89
"2020-05-17 02:51:00",8.8,7.1,0.0,0.0,0,1022.9,0,1,"",89
"2020-05-17 02:52:00",8.8,7.1,0.0,0.0,0,1022.9,0,1,"",89
"2020-05-17 02:53:00",8.8,7.1,0.0,0.0,0,1022.9,0,1,"",89
"2020-05-17 02:54:00",8.8,7.1,0.0,0.0,0,1022.9,1,1,"",89
"2020-05-17 02:55:00",8.8,7.1,0.0,0.0,0,1022.9,0,1,"",89
"2020-05-17 02:56:00",8.8,7.1,0.0,0.0,0,1022.9,0,1,"",89
"2020-05-17 02:57:00",8.8,7.1,0.0,0.0,0,1022.9,0,1,"",89
"2020-05-17 02:58:00",8.8,7.1,0.0,0.0,0,1022.9,1,1,"",89
"2020-05-17 02:59:00",8.8,7.1,0.0,0.0,0,1022.9,1,1,"",89
"2020-05-17 03:00:00",8.7,7.0,0.0,0.0,0,1022.9,1,1,"",89
"2020-05-17 03:01:00",8.7,7.0,0.0,0.0,0,1022.9,1,2,"",89
"2020-05-17 03:02:00",8.7,7.0,0.0,0.0,0,1022.9,1,1,"",89
"2020-05-17 03:03:00",8.7,7.0,0.0,0.0,0,1022.9,1,2,"",89
"2020-05-17 03:04:00",8.7,7.2,0.0,0.0,0,1022.9,1,2,"",90
"2020-05-17 03:05:00",8.7,7.2,0.0,0.0,0,1022.9,1,1,"",90
"2020-05-17 03:06:00",8.7,7.2,0.0,0.0,0,1022.9,0,1,"",90
"2020-05-17 03:07:00",8.7,7.2,0.0,0.0,0,1022.9,0,1,"",90
"2020-05-17 03:08:00",8.7,7.0,0.0,0.0,0,1022.9,0,1,"",89
"2020-05-17 03:09:00",8.7,7.0,0.0,0.0,0,1022.9,0,2,"",89
"2020-05-17 03:10:00",8.6,6.9,0.0,0.0,0,1022.9,1,1,"",89
"2020-05-17 03:11:00",8.5,6.8,0.0,0.0,0,1022.9,1,1,"",89
"2020-05-17 03:12:00",8.4,6.7,0.0,0.0,0,1022.9,1,2,"",89
"2020-05-17 03:13:00",8.4,6.7,0.0,0.0,0,1022.9,1,2,"",89
"2020-05-17 03:14:00",8.3,6.6,0.0,0.0,0,1022.9,1,1,"",89
"2020-05-17 03:15:00",8.3,6.6,0.0,0.0,0,1022.9,1,2,"",89
"2020-05-17 03:16:00",8.3,6.6,0.0,0.0,0,1022.9,1,1,"",89
"2020-05-17 03:17:00",8.3,6.8,0.0,0.0,0,1022.9,1,1,"",90
"2020-05-17 03:18:00",8.2,6.7,0.0,0.0,0,1022.9,1,2,"",90
"2020-05-17 03:19:00",8.2,6.7,0.0,0.0,0,1022.9,1,2,"",90
"2020-05-17 03:20:00",8.2,6.7,0.0,0.0,0,1022.9,1,2,"",90
"2020-05-17 03:21:00",8.2,6.7,0.0,0.0,0,1022.9,1,1,"",90
"2020-05-17 03:22:00",8.1,6.4,0.0,0.0,0,1022.9,0,1,"",89
"2020-05-17 03:23:00",7.9,6.2,0.0,0.0,0,1022.9,1,1,"",89
"2020-05-17 03:24:00",7.9,6.2,0.0,0.0,0,1022.9,1,1,"",89
"2020-05-17 03:25:00",7.8,6.3,0.0,0.0,0,1022.9,1,1,"",90
"2020-05-17 03:26:00",7.8,6.3,0.0,0.0,0,1022.9,1,1,"",90
"2020-05-17 03:27:00",7.7,6.2,0.0,0.0,0,1022.9,0,1,"",90
"2020-05-17 03:28:00",7.7,6.2,0.0,0.0,0,1022.9,0,1,"",90
"2020-05-17 03:29:00",7.7,6.2,0.0,0.0,0,1022.9,0,1,"",90
"2020-05-17 03:30:00",7.7,6.2,0.0,0.0,0,1022.9,0,0,"",90
"2020-05-17 03:31:00",7.6,6.1,0.0,0.0,0,1022.8,0,1,"",90
"2020-05-17 03:32:00",7.6,6.1,0.0,0.0,0,1022.9,0,1,"",90
"2020-05-17 03:33:00",7.6,6.1,0.0,0.0,0,1022.9,0,1,"",90
"2020-05-17 03:34:00",7.6,6.1,0.0,0.0,0,1022.9,1,1,"",90
"2020-05-17 03:35:00",7.5,6.0,0.0,0.0,0,1022.9,0,1,"",90
"2020-05-17 03:36:00",7.4,5.9,0.0,0.0,0,1022.9,1,1,"",90
"2020-05-17 03:37:00",7.4,5.9,0.0,0.0,0,1022.9,0,1,"",90
"2020-05-17 03:38:00",7.4,6.0,0.0,0.0,0,1022.9,0,0,"",91
"2020-05-17 03:39:00",7.3,5.9,0.0,0.0,0,1022.9,0,1,"",91
"2020-05-17 03:40:00",7.3,5.9,0.0,0.0,0,1022.9,0,1,"",91
"2020-05-17 03:41:00",7.3,5.9,0.0,0.0,0,1022.9,0,1,"",91
"2020-05-17 03:42:00",7.3,5.9,0.0,0.0,0,1022.9,0,1,"",91
"2020-05-17 03:43:00",7.2,5.8,0.0,0.0,0,1022.9,0,0,"",91
"2020-05-17 03:44:00",7.2,5.8,0.0,0.0,0,1022.9,0,1,"",91
"2020-05-17 03:45:00",7.1,5.7,0.0,0.0,0,1022.9,0,1,"",91
"2020-05-17 03:46:00",7.1,5.7,0.0,0.0,0,1022.9,0,1,"",91
"2020-05-17 03:47:00",7.1,5.7,0.0,0.0,0,1022.9,0,0,"",91
"2020-05-17 03:48:00",7.1,5.7,0.0,0.0,0,1022.9,0,1,"",91
"2020-05-17 03:49:00",7.0,5.6,0.0,0.0,0,1023.0,0,0,"",91
"2020-05-17 03:50:00",7.0,5.6,0.0,0.0,0,1023.0,0,0,"",91
"2020-05-17 03:51:00",6.9,5.5,0.0,0.0,0,1023.0,0,1,"",91
"2020-05-17 03:52:00",6.9,5.5,0.0,0.0,0,1022.9,0,1,"",91
"2020-05-17 03:53:00",6.9,5.5,0.0,0.0,0,1023.0,0,1,"",91
"2020-05-17 03:54:00",6.9,5.5,0.0,0.0,0,1023.0,1,1,"",91
"2020-05-17 03:55:00",6.9,5.5,0.0,0.0,0,1023.0,1,1,"",91
"2020-05-17 03:56:00",6.8,5.4,0.0,0.0,0,1023.0,1,2,"",91
"2020-05-17 03:57:00",6.8,5.4,0.0,0.0,0,1022.9,1,2,"",91
"2020-05-17 03:58:00",6.8,5.4,0.0,0.0,0,1023.0,1,2,"",91
"2020-05-17 03:59:00",6.8,5.4,0.0,0.0,0,1022.9,1,2,"",91
"2020-05-17 04:00:00",6.8,5.6,0.0,0.0,0,1022.9,1,2,"",92
"2020-05-17 04:01:00",6.8,5.6,0.0,0.0,0,1022.9,1,2,"",92
"2020-05-17 04:02:00",6.8,5.6,0.0,0.0,0,1022.9,1,2,"",92
"2020-05-17 04:03:00",6.8,5.4,0.0,0.0,0,1022.9,1,1,"",91
"2020-05-17 04:04:00",6.7,5.3,0.0,0.0,0,1022.9,1,1,"",91
"2020-05-17 04:05:00",6.7,5.3,0.0,0.0,0,1022.9,1,2,"",91
"2020-05-17 04:06:00",6.7,5.5,0.0,0.0,0,1022.9,1,1,"",92
"2020-05-17 04:07:00",6.7,5.3,0.0,0.0,0,1022.9,1,2,"",91
"2020-05-17 04:08:00",6.6,5.2,0.0,0.0,0,1022.9,0,1,"",91
"2020-05-17 04:09:00",6.6,5.2,0.0,0.0,0,1022.9,0,1,"",91
"2020-05-17 04:10:00",6.6,5.2,0.0,0.0,0,1022.9,0,1,"",91
"2020-05-17 04:11:00",6.6,5.2,0.0,0.0,0,1022.9,0,1,"",91
"2020-05-17 04:12:00",6.6,5.2,0.0,0.0,0,1022.9,0,1,"",91
"2020-05-17 04:13:00",6.5,5.3,0.0,0.0,0,1022.9,1,1,"",92
"2020-05-17 04:14:00",6.4,5.2,0.0,0.0,0,1022.9,0,1,"",92
"2020-05-17 04:15:00",6.4,5.0,0.0,0.0,0,1022.9,1,1,"",91
"2020-05-17 04:16:00",6.4,5.0,0.0,0.0,0,1022.9,1,1,"",91
"2020-05-17 04:17:00",6.3,4.9,0.0,0.0,0,1022.8,1,1,"",91
"2020-05-17 04:18:00",6.3,4.9,0.0,0.0,0,1022.9,1,1,"",91
"2020-05-17 04:19:00",6.3,4.9,0.0,0.0,0,1022.9,1,1,"",91
"2020-05-17 04:20:00",6.2,5.0,0.0,0.0,0,1022.9,0,1,"",92
"2020-05-17 04:21:00",6.2,5.0,0.0,0.0,0,1022.9,0,1,"",92
"2020-05-17 04:22:00",6.2,5.0,0.0,0.0,0,1022.8,0,1,"",92
"2020-05-17 04:23:00",6.2,5.0,0.0,0.0,0,1022.9,0,1,"",92
"2020-05-17 04:24:00",6.1,4.9,0.0,0.0,0,1022.9,1,1,"",92
"2020-05-17 04:25:00",6.1,4.9,0.0,0.0,0,1022.8,1,1,"",92
"2020-05-17 04:26:00",6.1,4.9,0.0,0.0,0,1022.8,1,1,"",92
"2020-05-17 04:27:00",6.1,4.9,0.0,0.0,0,1022.8,1,1,"",92
"2020-05-17 04:28:00",6.1,4.9,0.0,0.0,0,1022.8,1,1,"",92
"2020-05-17 04:29:00",6.1,4.9,0.0,0.0,0,1022.8,1,1,"",92
"2020-05-17 04:30:00",6.0,4.8,0.0,0.0,0,1022.8,0,1,"",92
"2020-05-17 04:31:00",6.0,4.8,0.0,0.0,0,1022.8,0,1,"",92
"2020-05-17 04:32:00",6.0,4.8,0.0,0.0,0,1022.8,0,1,"",92
"2020-05-17 04:33:00",6.0,4.8,0.0,0.0,0,1022.7,0,1,"",92
"2020-05-17 04:34:00",5.9,4.7,0.0,0.0,0,1022.8,0,0,"",92
"2020-05-17 04:35:00",5.9,4.7,0.0,0.0,0,1022.7,0,0,"",92
"2020-05-17 04:36:00",5.9,4.7,0.0,0.0,0,1022.8,0,0,"",92
"2020-05-17 04:37:00",5.9,4.7,0.0,0.0,0,1022.7,0,0,"",92
"2020-05-17 04:38:00",5.9,4.7,0.0,0.0,0,1022.8,0,1,"",92
"2020-05-17 04:39:00",5.9,4.7,0.0,0.0,0,1022.8,0,0,"",92
"2020-05-17 04:40:00",5.9,4.7,0.0,0.0,0,1022.8,0,1,"",92
"2020-05-17 04:41:00",5.9,4.7,0.0,0.0,0,1022.8,0,1,"",92
"2020-05-17 04:42:00",5.9,4.7,0.0,0.0,0,1022.8,0,0,"",92
"2020-05-17 04:43:00",5.8,4.6,0.0,0.0,0,1022.8,0,1,"",92
"2020-05-17 04:44:00",5.8,4.6,0.0,0.0,0,1022.8,0,1,"",92
"2020-05-17 04:45:00",5.7,4.5,0.0,0.0,0,1022.8,0,1,"",92
"2020-05-17 04:46:00",5.7,4.5,0.0,0.0,0,1022.8,0,0,"",92
"2020-05-17 04:47:00",5.7,4.5,0.0,0.0,0,1022.8,0,1,"",92
"2020-05-17 04:48:00",5.7,4.5,0.0,0.0,0,1022.8,0,1,"",92
"2020-05-17 04:49:00",5.7,4.5,0.0,0.0,0,1022.8,0,1,"",92
"2020-05-17 04:50:00",5.7,4.5,0.0,0.0,0,1022.8,0,1,"",92
"2020-05-17 04:51:00",5.7,4.5,0.0,0.0,0,1022.7,0,1,"",92
"2020-05-17 04:52:00",5.6,4.4,0.0,0.0,0,1022.7,0,0,"",92
"2020-05-17 04:53:00",5.6,4.4,0.0,0.0,0,1022.7,0,0,"",92
"2020-05-17 04:54:00",5.6,4.4,0.0,0.0,0,1022.7,0,0,"",92
"2020-05-17 04:55:00",5.6,4.4,0.0,0.0,0,1022.7,0,0,"",92
"2020-05-17 04:56:00",5.6,4.4,0.0,0.0,0,1022.7,0,0,"",92
"2020-05-17 04:57:00",5.6,4.4,0.0,0.0,0,1022.8,0,0,"",92
"2020-05-17 04:58:00",5.5,4.3,0.0,0.0,0,1022.7,0,0,"",92
"2020-05-17 04:59:00",5.5,4.3,0.0,0.0,0,1022.7,0,1,"",92
"2020-05-17 05:00:00",5.4,4.2,0.0,0.0,0,1022.7,0,1,"",92
"2020-05-17 05:01:00",5.4,4.2,0.0,0.0,0,1022.7,0,1,"",92
"2020-05-17 05:02:00",5.4,4.2,0.0,0.0,0,1022.7,0,0,"",92
"2020-05-17 05:03:00",5.3,4.1,0.0,0.0,0,1022.6,0,1,"",92
"2020-05-17 05:04:00",5.3,4.1,0.0,0.0,0,1022.7,0,1,"",92
"2020-05-17 05:05:00",5.3,4.3,0.0,0.0,0,1022.7,0,1,"",93
"2020-05-17 05:06:00",5.3,4.1,0.0,0.0,0,1022.7,0,1,"",92
"2020-05-17 05:07:00",5.3,4.1,0.0,0.0,0,1022.7,1,1,"",92
"2020-05-17 05:08:00",5.3,4.1,0.0,0.0,0,1022.7,1,1,"",92
"2020-05-17 05:09:00",5.2,4.0,0.0,0.0,0,1022.7,1,1,"",92
"2020-05-17 05:10:00",5.2,4.0,0.0,0.0,0,1022.6,0,1,"",92
"2020-05-17 05:11:00",5.2,4.0,0.0,0.0,0,1022.7,1,1,"",92
"2020-05-17 05:12:00",5.2,4.2,0.0,0.0,0,1022.7,0,1,"",93
"2020-05-17 05:13:00",5.2,4.2,0.0,0.0,0,1022.7,0,1,"",93
"2020-05-17 05:14:00",5.2,4.0,0.0,0.0,0,1022.7,0,1,"",92
"2020-05-17 05:15:00",5.2,4.2,0.0,0.0,0,1022.7,0,1,"",93
"2020-05-17 05:16:00",5.1,4.1,0.0,0.0,0,1022.7,0,1,"",93
"2020-05-17 05:17:00",5.1,4.1,0.0,0.0,0,1022.7,0,1,"",93
"2020-05-17 05:18:00",5.1,4.1,0.0,0.0,0,1022.7,0,0,"",93
"2020-05-17 05:19:00",5.1,4.1,0.0,0.0,0,1022.7,0,1,"",93
"2020-05-17 05:20:00",5.0,4.0,0.0,0.0,0,1022.7,0,1,"",93
"2020-05-17 05:21:00",5.0,4.0,0.0,0.0,0,1022.6,0,1,"",93
"2020-05-17 05:22:00",5.1,4.1,0.0,0.0,0,1022.7,0,1,"",93
"2020-05-17 05:23:00",5.1,4.1,0.0,0.0,0,1022.7,0,1,"",93
"2020-05-17 05:24:00",5.1,4.1,0.0,0.0,0,1022.7,0,0,"",93
"2020-05-17 05:25:00",5.0,4.0,0.0,0.0,5,1022.7,0,1,"",93
"2020-05-17 05:26:00",5.0,4.0,0.0,0.0,5,1022.7,0,1,"",93
"2020-05-17 05:27:00",4.9,3.9,0.0,0.0,5,1022.7,0,0,"",93
"2020-05-17 05:28:00",4.9,3.9,0.0,0.0,5,1022.7,0,1,"",93
"2020-05-17 05:29:00",4.9,3.9,0.0,0.0,5,1022.7,0,1,"",93
"2020-05-17 05:30:00",4.9,3.9,0.0,0.0,5,1022.7,0,1,"",93
"2020-05-17 05:31:00",4.9,3.9,0.0,0.0,5,1022.7,0,1,"",93
"2020-05-17 05:32:00",4.9,3.9,0.0,0.0,7,1022.7,0,1,"",93
"2020-05-17 05:33:00",4.9,3.9,0.0,0.0,7,1022.7,0,1,"",93
"2020-05-17 05:34:00",4.8,3.8,0.0,0.0,7,1022.7,0,1,"",93
"2020-05-17 05:35:00",4.8,3.8,0.0,0.0,7,1022.7,0,1,"",93
"2020-05-17 05:36:00",4.8,3.8,0.0,0.0,7,1022.7,0,1,"",93
"2020-05-17 05:37:00",4.8,3.8,0.0,0.0,7,1022.6,0,0,"",93
"2020-05-17 05:38:00",4.8,3.8,0.0,0.0,11,1022.6,0,0,"",93
"2020-05-17 05:39:00",4.8,3.8,0.0,0.0,11,1022.6,0,1,"",93
"2020-05-17 05:40:00",4.8,3.8,0.0,0.0,11,1022.6,0,1,"",93
"2020-05-17 05:41:00",4.8,3.8,0.0,0.0,11,1022.6,0,1,"",93
"2020-05-17 05:42:00",4.8,3.8,0.0,0.0,12,1022.6,0,1,"",93
"2020-05-17 05:43:00",4.8,3.8,0.0,0.0,12,1022.7,0,1,"",93
"2020-05-17 05:44:00",4.8,3.8,0.0,0.0,14,1022.6,0,0,"",93
"2020-05-17 05:45:00",4.8,3.8,0.0,0.0,14,1022.6,0,1,"",93
"2020-05-17 05:46:00",4.8,3.8,0.0,0.0,14,1022.7,0,1,"",93
"2020-05-17 05:47:00",4.8,3.8,0.0,0.0,14,1022.7,0,1,"",93
"2020-05-17 05:48:00",4.8,3.8,0.0,0.0,14,1022.7,0,1,"",93
"2020-05-17 05:49:00",4.8,3.8,0.0,0.0,14,1022.7,0,1,"",93
"2020-05-17 05:50:00",4.9,3.9,0.0,0.0,14,1022.7,0,1,"",93
"2020-05-17 05:51:00",4.9,3.9,0.0,0.0,16,1022.7,0,1,"",93
"2020-05-17 05:52:00",4.9,3.9,0.0,0.0,16,1022.7,0,1,"",93
"2020-05-17 05:53:00",4.9,3.9,0.0,0.0,16,1022.7,0,1,"",93
"2020-05-17 05:54:00",4.9,3.9,0.0,0.0,18,1022.7,1,1,"",93
"2020-05-17 05:55:00",4.9,3.9,0.0,0.0,18,1022.7,1,1,"",93
"2020-05-17 05:56:00",4.9,3.9,0.0,0.0,18,1022.7,0,1,"",93
"2020-05-17 05:57:00",4.9,3.9,0.0,0.0,19,1022.7,0,1,"",93
"2020-05-17 05:58:00",4.9,3.9,0.0,0.0,19,1022.7,0,1,"",93
"2020-05-17 05:59:00",4.9,3.9,0.0,0.0,19,1022.7,1,1,"",93
"2020-05-17 06:00:00",4.9,3.9,0.0,0.0,19,1022.7,0,2,"",93
"2020-05-17 06:01:00",4.9,3.9,0.0,0.0,19,1022.7,0,1,"",93
"2020-05-17 06:02:00",4.9,3.9,0.0,0.0,19,1022.7,0,1,"",93
"2020-05-17 06:03:00",4.9,3.9,0.0,0.0,19,1022.7,0,0,"",93
"2020-05-17 06:04:00",4.9,3.9,0.0,0.0,19,1022.7,0,1,"",93
"2020-05-17 06:05:00",4.9,3.9,0.0,0.0,19,1022.7,1,1,"",93
"2020-05-17 06:06:00",4.9,3.9,0.0,0.0,19,1022.8,0,1,"",93
"2020-05-17 06:07:00",5.0,4.0,0.0,0.0,19,1022.7,0,1,"",93
"2020-05-17 06:08:00",5.0,4.0,0.0,0.0,21,1022.8,0,1,"",93
"2020-05-17 06:09:00",5.0,4.0,0.0,0.0,21,1022.8,0,1,"",93
"2020-05-17 06:10:00",5.1,4.1,0.0,0.0,21,1022.8,0,0,"",93
"2020-05-17 06:11:00",5.1,4.2,0.0,0.0,21,1022.8,0,1,"",94
"2020-05-17 06:12:00",5.2,4.3,0.0,0.0,21,1022.8,0,1,"",94
"2020-05-17 06:13:00",5.2,4.3,0.0,0.0,21,1022.8,0,1,"",94
"2020-05-17 06:14:00",5.2,4.3,0.0,0.0,21,1022.9,1,1,"",94
"2020-05-17 06:15:00",5.2,4.2,0.0,0.0,21,1022.9,1,1,"",93
"2020-05-17 06:16:00",5.2,4.2,0.0,0.0,23,1022.9,0,1,"",93
"2020-05-17 06:17:00",5.2,4.3,0.0,0.0,23,1022.9,0,1,"",94
"2020-05-17 06:18:00",5.3,4.4,0.0,0.0,23,1022.9,1,1,"",94
"2020-05-17 06:19:00",5.3,4.4,0.0,0.0,23,1022.9,0,1,"",94
"2020-05-17 06:20:00",5.3,4.4,0.0,0.0,23,1022.9,0,1,"",94
"2020-05-17 06:21:00",5.4,4.5,0.0,0.0,23,1022.9,0,1,"",94
"2020-05-17 06:22:00",5.4,4.4,0.0,0.0,25,1022.9,0,0,"",93
"2020-05-17 06:23:00",5.4,4.4,0.0,0.0,26,1022.8,0,1,"",93
"2020-05-17 06:24:00",5.4,4.4,0.0,0.0,26,1022.8,0,1,"",93
"2020-05-17 06:25:00",5.4,4.4,0.0,0.0,26,1022.9,0,1,"",93
"2020-05-17 06:26:00",5.4,4.4,0.0,0.0,26,1022.9,0,1,"",93
"2020-05-17 06:27:00",5.5,4.5,0.0,0.0,26,1022.9,0,1,"",93
"2020-05-17 06:28:00",5.6,4.6,0.0,0.0,26,1022.9,0,1,"",93
"2020-05-17 06:29:00",5.6,4.6,0.0,0.0,26,1022.8,0,1,"",93
"2020-05-17 06:30:00",5.6,4.7,0.0,0.0,26,1022.9,0,1,"",94
"2020-05-17 06:31:00",5.7,4.8,0.0,0.0,26,1022.9,0,0,"",94
"2020-05-17 06:32:00",5.7,4.8,0.0,0.0,26,1022.9,0,1,"",94
"2020-05-17 06:33:00",5.8,4.9,0.0,0.0,26,1022.9,1,1,"",94
"2020-05-17 06:34:00",5.8,4.8,0.0,0.0,28,1022.9,1,1,"",93
"2020-05-17 06:35:00",5.8,4.8,0.0,0.0,30,1022.9,1,2,"",93
"2020-05-17 06:36:00",5.8,4.8,0.0,0.0,30,1023.0,1,2,"",93
"2020-05-17 06:37:00",5.9,4.9,0.0,0.0,30,1022.9,0,2,"",93
"2020-05-17 06:38:00",5.9,5.0,0.0,0.0,32,1023.0,0,1,"",94
"2020-05-17 06:39:00",6.0,5.1,0.0,0.0,32,1023.0,0,1,"",94
"2020-05-17 06:40:00",6.1,5.2,0.0,0.0,33,1022.9,0,1,"",94
"2020-05-17 06:41:00",6.1,5.2,0.0,0.0,33,1022.9,1,1,"",94
"2020-05-17 06:42:00",6.1,5.2,0.0,0.0,33,1022.9,0,1,"",94
"2020-05-17 06:43:00",6.2,5.3,0.0,0.0,35,1023.0,0,1,"",94
"2020-05-17 06:44:00",6.2,5.3,0.0,0.0,35,1023.0,0,1,"",94
"2020-05-17 06:45:00",6.3,5.4,0.0,0.0,35,1023.0,1,1,"",94
"2020-05-17 06:46:00",6.3,5.4,0.0,0.0,37,1023.0,1,1,"",94
"2020-05-17 06:47:00",6.3,5.4,0.0,0.0,37,1023.0,0,1,"",94
"2020-05-17 06:48:00",6.4,5.5,0.0,0.0,37,1023.0,0,1,"",94
"2020-05-17 06:49:00",6.5,5.6,0.0,0.0,37,1023.0,0,1,"",94
"2020-05-17 06:50:00",6.5,5.6,0.0,0.0,39,1023.0,1,1,"",94
"2020-05-17 06:51:00",6.5,5.6,0.0,0.0,39,1023.0,0,1,"",94
"2020-05-17 06:52:00",6.6,5.7,0.0,0.0,39,1023.0,0,1,"",94
"2020-05-17 06:53:00",6.6,5.7,0.0,0.0,39,1023.0,0,1,"",94
"2020-05-17 06:54:00",6.7,5.8,0.0,0.0,39,1023.0,0,1,"",94
"2020-05-17 06:55:00",6.7,5.8,0.0,0.0,39,1023.0,0,1,"",94
"2020-05-17 06:56:00",6.8,5.9,0.0,0.0,39,1023.0,0,1,"",94
"2020-05-17 06:57:00",6.8,5.9,0.0,0.0,39,1023.0,0,1,"",94